Watertown, SD

12:25 AM CDT on September 20, 2017 (GMT -0500)
Watertown Municipal

Weather History for KATY - January, 2012

Change the Weather History Date:

Sunday, January 22, 2012

  Actual Average Record
Temperature  
Mean Temperature 23 °F 12 °F  
Max Temperature 26 °F 22 °F 54 °F (1981)
Min Temperature 20 °F 3 °F -31 °F (1936)
Degree Days  
Heating Degree Days 42 52  
Month to date heating degree days 1006 1158  
Since 1 July heating degree days 3928 4617  
Cooling Degree Days 0 0  
Month to date cooling degree days 0 0  
Year to date cooling degree days 0 0  
Moisture  
Dew Point 21 °F    
Average Humidity 89    
Maximum Humidity 96    
Minimum Humidity 81    
Precipitation  
Precipitation 0.03 in 0.02 in 0.50 in (1979)
Month to date precipitation 0.29 0.37  
Year to date precipitation 0.29 0.37  
Snow  
Snow 0.00 in - - ()
Month to date snowfall 5.2  
Since 1 July snowfall 9.2  
Snow Depth 3.00 in    
Sea Level Pressure  
Sea Level Pressure 29.53 in    
Wind  
Wind Speed 8 mph (NW)    
Max Wind Speed 24 mph    
Max Gust Speed 32 mph    
Visibility 3 miles    
Events Snow    
T = Trace of Precipitation, MM = Missing Value Source: NWS Daily Summary

Daily Weather History Graph

Daily Weather History Graph

Search for Another Location

Airport or City:

Trip Planner

Search our weather history database for the weather conditions in past years. The results will help you decide how hot, cold, wet, or windy it might be!

Date:

Astronomy

Jan. 22, 2012 Rise Set
Actual Time 7:58 AM CST 5:22 PM CST
Civil Twilight 7:26 AM CST 5:54 PM CST
Nautical Twilight 6:50 AM CST 6:30 PM CST
Astronomical Twilight 6:15 AM CST 7:04 PM CST
Moon 7:15 AM CST (1/22) 5:06 PM CST (1/22)
Length of Visible Light 10h 27m
Length of Day
9h 23m
Waning Crescent, 0% of the Moon is Illuminated
Jan 22
Waning Crescent
Jan 23
New
Jan 30
First Quarter
Feb 7
Full
Feb 14
Last Quarter

Hourly Weather History & Observations

Time (CST) Temp. Windchill Dew Point Humidity Pressure Visibility Wind Dir Wind Speed Gust Speed Precip Events Conditions
12:19 AM 19.4 °F 3.6 °F 17.6 °F 93% 29.47 in 7.0 mi South 19.6 mph 28.8 mph N/A   Scattered Clouds
12:29 AM 19.4 °F 3.6 °F 17.6 °F 93% 29.47 in 8.0 mi South 19.6 mph 26.5 mph N/A   Mostly Cloudy
12:53 AM 19.9 °F 3.5 °F 17.1 °F 89% 29.56 in 7.0 mi South 21.9 mph 29.9 mph N/A   Mostly Cloudy
1:53 AM 19.9 °F 3.9 °F 17.1 °F 89% 29.56 in 7.0 mi South 20.7 mph 26.5 mph N/A   Mostly Cloudy
2:53 AM 21.0 °F 5.7 °F 18.0 °F 88% 29.54 in 6.0 mi South 19.6 mph - N/A   Overcast
3:53 AM 21.0 °F 6.6 °F 19.0 °F 92% 29.50 in 6.0 mi South 17.3 mph - N/A   Overcast
4:53 AM 21.2 °F 6.8 °F 19.4 °F 93% 29.43 in 5.0 mi South 17.3 mph 25.3 mph N/A   Overcast
5:53 AM 21.2 °F 9.5 °F 19.4 °F 93% 29.42 in 5.0 mi South 11.5 mph - N/A   Overcast
6:35 AM 21.2 °F 8.3 °F 19.4 °F 93% 29.42 in 5.0 mi South 13.8 mph - N/A   Overcast
6:53 AM 21.9 °F 11.7 °F 19.9 °F 92% 29.51 in 5.0 mi South 9.2 mph - N/A   Overcast
7:37 AM 21.2 °F 10.9 °F 19.4 °F 93% 29.41 in 5.0 mi SSE 9.2 mph - N/A   Overcast
7:53 AM 21.9 °F 12.5 °F 19.9 °F 92% 29.48 in 5.0 mi SSE 8.1 mph - N/A   Overcast
8:53 AM 23.0 °F 15.8 °F 19.9 °F 88% 29.51 in 3.0 mi SE 5.8 mph - N/A   Overcast
9:10 AM 23.0 °F 14.7 °F 19.4 °F 86% 29.44 in 2.5 mi SE 6.9 mph - N/A   Overcast
10:53 AM 24.1 °F 18.2 °F 21.9 °F 91% 29.54 in 2.0 mi South 4.6 mph - N/A   Overcast
11:53 AM 24.1 °F - 21.9 °F 91% 29.55 in 3.0 mi Calm Calm - N/A   Overcast
12:21 PM 24.8 °F - 21.2 °F 86% 29.47 in 3.0 mi Calm Calm - N/A   Overcast
12:53 PM 25.0 °F - 21.9 °F 88% 29.55 in 4.0 mi Calm Calm - N/A   Overcast
1:53 PM 25.0 °F 18.1 °F 21.0 °F 85% 29.54 in 3.0 mi NNW 5.8 mph - N/A   Overcast
2:53 PM 26.1 °F 20.5 °F 21.9 °F 84% 29.54 in 4.0 mi NNW 4.6 mph - N/A   Overcast
3:35 PM 26.6 °F 19.1 °F 21.2 °F 80% 29.48 in 2.0 mi North 6.9 mph - 0.00 in Snow Light Snow
3:53 PM 25.0 °F 17.1 °F 21.9 °F 88% 29.56 in 2.5 mi North 6.9 mph - 0.00 in Snow Light Snow
4:15 PM 24.8 °F 17.9 °F 21.2 °F 86% 29.49 in 1.2 mi North 5.8 mph - 0.00 in Snow Light Snow
4:30 PM 24.8 °F 17.9 °F 21.2 °F 86% 29.49 in 1.0 mi North 5.8 mph - 0.00 in Snow Light Snow
4:53 PM 25.0 °F 18.1 °F 23.0 °F 92% 29.57 in 0.8 mi NNW 5.8 mph - 0.00 in Snow Light Snow
5:38 PM 24.8 °F 16.9 °F 23.0 °F 93% 29.52 in 1.5 mi North 6.9 mph - 0.02 in Snow Light Snow
5:46 PM 24.8 °F 16.9 °F 21.2 °F 86% 29.52 in 2.0 mi North 6.9 mph - 0.02 in Snow Light Snow
5:53 PM 24.1 °F 17.0 °F 21.9 °F 91% 29.59 in 2.0 mi NNW 5.8 mph - 0.02 in Snow Light Snow
6:27 PM 24.8 °F 17.9 °F 21.2 °F 86% 29.54 in 2.5 mi NNW 5.8 mph - N/A Snow Light Snow
6:53 PM 23.0 °F 15.8 °F 21.9 °F 96% 29.61 in 1.8 mi NNW 5.8 mph - 0.00 in Snow Light Snow
7:20 PM 24.8 °F 19.1 °F 21.2 °F 86% 29.55 in 1.8 mi NW 4.6 mph - 0.00 in Snow Light Snow
7:28 PM 24.8 °F 19.1 °F 21.2 °F 86% 29.55 in 1.8 mi NW 4.6 mph - 0.00 in Snow Light Snow
7:36 PM 24.8 °F 19.1 °F 21.2 °F 86% 29.55 in 2.0 mi NW 4.6 mph - 0.00 in Snow Light Snow
7:49 PM 24.8 °F 19.1 °F 21.2 °F 86% 29.55 in 2.5 mi NNW 4.6 mph - 0.00 in Snow Light Snow
7:53 PM 24.8 °F 19.1 °F 21.2 °F 86% 29.55 in 2.5 mi NNW 4.6 mph - N/A Snow Light Snow
8:00 PM 24.8 °F 16.9 °F 21.2 °F 86% 29.55 in 3.0 mi NNW 6.9 mph - 0.00 in   Overcast
8:19 PM 24.8 °F 16.9 °F 21.2 °F 86% 29.56 in 3.0 mi NNW 6.9 mph - 0.00 in   Overcast
8:43 PM 24.8 °F 15.3 °F 21.2 °F 86% 29.56 in 2.5 mi NNW 9.2 mph - 0.00 in   Overcast
8:53 PM 24.1 °F 15.2 °F 21.9 °F 91% 29.63 in 2.0 mi NNW 8.1 mph - 0.00 in Snow Light Snow
9:05 PM 24.8 °F 16.1 °F 21.2 °F 86% 29.56 in 1.8 mi NNW 8.1 mph - 0.00 in Snow Light Snow
9:28 PM 23.0 °F 13.9 °F 21.2 °F 93% 29.56 in 2.5 mi NW 8.1 mph - 0.00 in   Overcast
9:34 PM 23.0 °F 13.9 °F 21.2 °F 93% 29.56 in 3.0 mi NW 8.1 mph - 0.00 in   Overcast
9:44 PM 24.8 °F 16.1 °F 21.2 °F 86% 29.56 in 2.0 mi NNW 8.1 mph - 0.00 in Snow Light Snow
9:51 PM 24.8 °F 15.3 °F 21.2 °F 86% 29.56 in 1.8 mi NNW 9.2 mph - 0.01 in Snow Light Snow
9:53 PM 24.1 °F 14.4 °F 21.9 °F 91% 29.64 in 1.8 mi NNW 9.2 mph - 0.01 in Snow Light Snow
10:41 PM 24.8 °F 14.6 °F 21.2 °F 86% 29.56 in 2.5 mi NNW 10.4 mph - 0.00 in Snow Light Snow
10:53 PM 24.1 °F 13.1 °F 21.0 °F 88% 29.63 in 2.0 mi NNW 11.5 mph - 0.00 in Snow Light Snow
11:18 PM 23.0 °F 11.1 °F 21.2 °F 93% 29.55 in 1.8 mi NNW 12.7 mph - 0.00 in Snow Light Snow
11:28 PM 23.0 °F 10.6 °F 21.2 °F 93% 29.55 in 1.2 mi NNW 13.8 mph - 0.00 in Snow Light Snow
11:37 PM 23.0 °F 10.6 °F 21.2 °F 93% 29.55 in 1.5 mi NNW 13.8 mph - 0.00 in Snow Light Snow
11:53 PM 23.0 °F 10.1 °F 21.0 °F 92% 29.62 in 1.5 mi NNW 15.0 mph - 0.00 in Snow Light Snow